Change the Weather History Date:

Wednesday, May 29, 2013

  Actual Average Record
Temperature  
Mean Temperature 70 °F 63 °F  
Max Temperature 82 °F 75 °F 96 °F (1969)
Min Temperature 57 °F 51 °F 35 °F (1953)
Degree Days  
Heating Degree Days 0 4  
Month to date heating degree days 215 215  
Since 1 July heating degree days 5683 6154  
Cooling Degree Days 5 0  
Month to date cooling degree days 30 28  
Year to date cooling degree days 30 33  
Growing Degree Days 20 (Base 50)    
Moisture  
Dew Point 61 °F    
Average Humidity 83    
Maximum Humidity 100    
Minimum Humidity 65    
Precipitation  
Precipitation 0.10 in 0.16 in 3.71 in (1984)
Month to date precipitation 4.19 4.10  
Year to date precipitation 10.65 17.19  
Sea Level Pressure  
Sea Level Pressure 30.05 in    
Wind  
Wind Speed 2 mph (South)    
Max Wind Speed 16 mph    
Max Gust Speed 22 mph    
Visibility 6 miles    
Events Rain , Thunderstorm    
T = Trace of Precipitation, MM = Missing Value Source: NWS Daily Summary

Daily Weather History Graph

Daily Weather History Graph

Search for Another Location

Airport or City:

Trip Planner

Search our weather history database for the weather conditions in past years. The results will help you decide how hot, cold, wet, or windy it might be!

Date:

Astronomy

May. 29, 2013 Rise Set
Actual Time 5:25 AM EDT 8:21 PM EDT
Civil Twilight 4:52 AM EDT 8:54 PM EDT
Nautical Twilight 4:10 AM EDT 9:36 PM EDT
Astronomical Twilight 3:21 AM EDT 10:25 PM EDT
Moon No Moon Rise 10:23 AM EDT (5/29)
Length of Visible Light 16h 02m
Length of Day
14h 56m
Waning Gibbous, 73% of the Moon is Illuminated
May 29
Waning Gibbous
May 31
Last Quarter
Jun 8
New
Jun 16
First Quarter
Jun 23
Full

Hourly Weather History & Observations

Time (EDT) Temp. Heat Index Dew Point Humidity Pressure Visibility Wind Dir Wind Speed Gust Speed Precip Events Conditions
12:25 AM 57.2 °F - 55.4 °F 94% 30.12 in 7.0 mi Calm Calm - 0.01 in   Overcast
12:48 AM 57.2 °F - 55.4 °F 94% 30.12 in 8.0 mi Calm Calm - 0.01 in   Overcast
12:53 AM 57.9 °F - 55.9 °F 93% 30.11 in 8.0 mi Calm Calm - 0.01 in   Overcast
1:42 AM 57.2 °F - 55.4 °F 94% 30.10 in 7.0 mi Calm Calm - N/A   Overcast
1:53 AM 57.0 °F - 57.0 °F 100% 30.09 in 5.0 mi Calm Calm - N/A   Overcast
2:44 AM 57.2 °F - 55.4 °F 94% 30.08 in 8.0 mi Calm Calm - N/A   Overcast
2:53 AM 57.9 °F - 55.9 °F 93% 30.07 in 9.0 mi Calm Calm - N/A   Overcast
3:53 AM 57.9 °F - 57.0 °F 97% 30.07 in 8.0 mi Calm Calm - 0.00 in   Overcast
4:12 AM 57.2 °F - 57.2 °F 100% 30.07 in 5.0 mi Calm Calm - N/A   Overcast
4:53 AM 57.9 °F - 57.0 °F 97% 30.06 in 6.0 mi Calm Calm - N/A   Overcast
5:48 AM 57.2 °F - 57.2 °F 100% 30.08 in 4.0 mi Calm Calm - 0.00 in   Overcast
5:53 AM 57.9 °F - 57.0 °F 97% 30.07 in 4.0 mi Calm Calm - 0.00 in   Overcast
6:03 AM 57.2 °F - 57.2 °F 100% 30.08 in 2.0 mi Calm Calm - 0.00 in Rain Light Rain
6:48 AM 57.2 °F - 57.2 °F 100% 30.08 in 1.8 mi Calm Calm - 0.01 in Rain Light Rain
6:53 AM 57.9 °F - 57.0 °F 97% 30.07 in 2.5 mi Calm Calm - 0.01 in Rain Light Rain
7:08 AM 57.2 °F - 57.2 °F 100% 30.08 in 3.0 mi Calm Calm - 0.00 in   Overcast
7:53 AM 59.0 °F - 57.9 °F 96% 30.08 in 4.0 mi Calm Calm - 0.00 in   Overcast
8:43 AM 60.8 °F - 59.0 °F 94% 30.08 in 2.0 mi Calm Calm - N/A   Overcast
8:53 AM 60.1 °F - 59.0 °F 96% 30.08 in 2.0 mi Calm Calm - N/A   Overcast
9:53 AM 61.0 °F - 59.0 °F 93% 30.07 in 2.0 mi Calm Calm - N/A   Overcast
10:53 AM 63.0 °F - 60.1 °F 90% 30.07 in 2.0 mi South 4.6 mph - N/A   Overcast
11:00 AM 62.6 °F - 60.8 °F 94% 30.08 in 3.0 mi South 5.8 mph - N/A   Overcast
11:53 AM 66.0 °F - 62.1 °F 87% 30.05 in 3.0 mi Calm Calm - N/A   Overcast
12:04 PM 66.2 °F - 62.6 °F 88% 30.05 in 8.0 mi South 6.9 mph - N/A   Overcast
12:43 PM 71.6 °F - 64.4 °F 78% 30.05 in 8.0 mi WSW 6.9 mph - N/A   Scattered Clouds
12:53 PM 72.0 °F - 64.0 °F 76% 30.04 in 8.0 mi WSW 8.1 mph - N/A   Partly Cloudy
1:53 PM 75.9 °F - 66.0 °F 71% 30.01 in 9.0 mi South 8.1 mph - N/A   Clear
2:53 PM 78.1 °F - 68.0 °F 71% 30.00 in 10.0 mi Calm Calm - N/A   Clear
3:53 PM 79.0 °F - 68.0 °F 69% 29.99 in 9.0 mi SSE 5.8 mph - N/A   Clear
4:53 PM 80.1 °F 82.9 °F 69.1 °F 69% 29.98 in 8.0 mi South 4.6 mph - N/A   Mostly Cloudy
5:53 PM 81.0 °F 83.8 °F 68.0 °F 65% 29.96 in 9.0 mi South 6.9 mph - N/A   Clear
6:53 PM 82.0 °F 85.9 °F 70.0 °F 67% 29.96 in 8.0 mi Calm Calm - N/A   Clear
7:53 PM 78.1 °F - 69.1 °F 74% 29.96 in 8.0 mi South 3.5 mph - N/A   Clear
8:53 PM 73.9 °F - 68.0 °F 82% 29.96 in 8.0 mi Calm Calm - N/A   Clear
9:53 PM 72.0 °F - 68.0 °F 87% 29.99 in 6.0 mi Calm Calm - N/A   Mostly Cloudy
10:33 PM 73.4 °F - 62.6 °F 69% 30.04 in 10.0 mi North 11.5 mph - N/A Thunderstorm Overcast
10:45 PM 71.6 °F - 64.4 °F 78% 30.04 in 1.8 mi Calm Calm - 0.08 in Rain , Thunderstorm Thunderstorms and Rain
10:53 PM 70.0 °F - 64.0 °F 81% 30.02 in 1.5 mi ENE 4.6 mph - 0.09 in Rain , Thunderstorm Light Thunderstorms and Rain
10:55 PM 69.8 °F - 64.4 °F 83% 30.03 in 4.0 mi East 3.5 mph - 0.00 in Rain , Thunderstorm Light Thunderstorms and Rain
11:03 PM 69.8 °F - 66.2 °F 88% 30.03 in 10.0 mi Calm Calm - 0.00 in   Mostly Cloudy
11:53 PM 66.9 °F - 64.9 °F 93% 30.03 in 7.0 mi Calm Calm - 0.00 in   Scattered Clouds